KUIPER-00181

导读 | 豆包AI

KUIPER-00181是美国亚马逊“柯伊伯计划”(Project Kuiper)星座中的一颗低轨互联网卫星,于2025年12月15日发射入轨。该项目计划部署超过3000颗卫星,旨在为全球尤其是偏远地区,提供高速低延迟、价格可负担的互联网接入服务,KUIPER-00181将助力完成全球网络覆盖,完善星座组网能力,补足地面网络覆盖盲区。

基本信息
目录编号:
67137
目录名称:
KUIPER-00181
国际标识:
2025-301E
轨道中心:
EARTH
卫星名称:
KUIPER-00181
卫星全名:
KUIPER-00181
卫星状态:
在轨 (已飞行161 天)
发射日期:
2025-12-15 UTC
国别 :
美国 (US)
星等 :
--
轨道信息
数据来源 国际轨道数据 AOE轨道数据
星历时间 2026-05-24T12:15:52+0800
21小时前
查看轨道信息
2026-05-21T11:00:00+0800
3天前
查看轨道信息
半长轴 7007.622km 7007.695km
偏心率 0.0001597 0.0001059
轨道倾角 51.902° 51.902°
近地点辐角 76.853° 71.495°
升交点赤经 104.307° 117.805°
平近点角 283.261° 214.688°
近地点 628.365km 628.815km
远地点 630.605km 630.301km
周期 97.301分钟 97.302分钟
每日圈数 14.799493 14.799261
详细信息
使用方式:
暂无
2D轨道图
3D轨道图
轨道高度分析图
轨道倾角分析图
轨道综合分析图
查看轨道综合分析图